Siloam Springs, AR

10:29 AM CDT on September 26, 2016 (GMT -0500)
Smith

Weather History for KSLG - June, 2014

Change the Weather History Date:

Wednesday, June 4, 2014

  Actual Average Record
Temperature  
Mean Temperature 78 °F -  
Max Temperature 87 °F 76 °F 91 °F (2011)
Min Temperature 69 °F 59 °F 48 °F (2003)
Cooling Degree Days 13    
Growing Degree Days 28 (Base 50)    
Moisture  
Dew Point 67 °F    
Average Humidity 68    
Maximum Humidity 78    
Minimum Humidity 55    
Precipitation  
Precipitation 0.00 in - - ()
Sea Level Pressure  
Sea Level Pressure 29.86 in    
Wind  
Wind Speed 11 mph (SSW)    
Max Wind Speed 24 mph    
Max Gust Speed 32 mph    
Visibility 10 miles    
Events      
Averages and records for this station are not official NWS values.
T = Trace of Precipitation, MM = Missing Value Source: NWS Daily Summary

Daily Weather History Graph

Daily Weather History Graph

Search for Another Location

Airport or City:

Trip Planner

Search our weather history database for the weather conditions in past years. The results will help you decide how hot, cold, wet, or windy it might be!

Date:

Astronomy

Jun. 04, 2014 Rise Set
Actual Time 6:01 AM CDT 8:31 PM CDT
Civil Twilight 5:31 AM CDT 9:01 PM CDT
Nautical Twilight 4:54 AM CDT 9:38 PM CDT
Astronomical Twilight 4:13 AM CDT 10:19 PM CDT
Moon 12:13 PM CDT (6/4) 12:38 AM CDT (6/4)
Length of Visible Light 15h 30m
Length of Day
14h 30m
Waxing Crescent, 39% of the Moon is Illuminated
Jun 4
Waxing Crescent
Jun 5
First Quarter
Jun 12
Full
Jun 19
Last Quarter
Jun 27
New

Hourly Weather History & Observations

Time (CDT) Temp. Heat Index Dew Point Humidity Pressure Visibility Wind Dir Wind Speed Gust Speed Precip Events Conditions
12:15 AM 73.4 °F - 64.4 °F 73% 29.87 in 10.0 mi South 9.2 mph - N/A   Clear
12:35 AM 73.4 °F - 64.4 °F 73% 29.87 in 10.0 mi South 9.2 mph - N/A   Clear
12:55 AM 73.4 °F - 64.4 °F 73% 29.88 in 10.0 mi SSW 9.2 mph - N/A   Clear
1:15 AM 73.4 °F - 64.4 °F 73% 29.89 in 10.0 mi SSW 9.2 mph - N/A   Clear
1:35 AM 73.4 °F - 64.4 °F 73% 29.90 in 10.0 mi SSW 9.2 mph - N/A   Clear
1:55 AM 71.6 °F - 64.4 °F 78% 29.91 in 10.0 mi South 4.6 mph - N/A   Clear
2:15 AM 71.6 °F - 64.4 °F 78% 29.91 in 10.0 mi SW 5.8 mph - N/A   Clear
2:35 AM 71.6 °F - 64.4 °F 78% 29.91 in 10.0 mi SSW 5.8 mph - N/A   Clear
2:55 AM 71.6 °F - 62.6 °F 73% 29.90 in 10.0 mi South 9.2 mph - N/A   Clear
3:15 AM 71.6 °F - 62.6 °F 73% 29.90 in 10.0 mi SSW 6.9 mph - N/A   Clear
3:35 AM 71.6 °F - 64.4 °F 78% 29.90 in 10.0 mi South 6.9 mph - N/A   Clear
3:55 AM 71.6 °F - 64.4 °F 78% 29.89 in 10.0 mi South 8.1 mph - N/A   Clear
4:15 AM 71.6 °F - 64.4 °F 78% 29.89 in 10.0 mi South 8.1 mph - N/A   Clear
4:35 AM 71.6 °F - 62.6 °F 73% 29.88 in 10.0 mi South 10.4 mph - N/A   Clear
4:55 AM 69.8 °F - 62.6 °F 78% 29.87 in 10.0 mi South 10.4 mph - N/A   Clear
5:15 AM 69.8 °F - 62.6 °F 78% 29.85 in 10.0 mi South 12.7 mph - N/A   Clear
5:35 AM 69.8 °F - 62.6 °F 78% 29.86 in 10.0 mi South 11.5 mph - N/A   Clear
5:55 AM 71.6 °F - 62.6 °F 73% 29.87 in 10.0 mi SSW 9.2 mph - N/A   Clear
6:15 AM 71.6 °F - 62.6 °F 73% 29.86 in 10.0 mi South 11.5 mph - N/A   Clear
6:35 AM 71.6 °F - 62.6 °F 73% 29.86 in 10.0 mi South 12.7 mph - N/A   Clear
6:55 AM 71.6 °F - 64.4 °F 78% 29.89 in 10.0 mi South 6.9 mph - N/A   Clear
7:15 AM 73.4 °F - 64.4 °F 73% 29.89 in 10.0 mi South 10.4 mph - N/A   Clear
7:35 AM 73.4 °F - 64.4 °F 73% 29.95 in 10.0 mi Calm Calm - N/A   Scattered Clouds
7:55 AM 73.4 °F - 64.4 °F 73% 29.94 in 10.0 mi South 9.2 mph - N/A   Scattered Clouds
8:15 AM 73.4 °F - 64.4 °F 73% 29.93 in 10.0 mi South 8.1 mph - N/A   Clear
8:35 AM 75.2 °F - 66.2 °F 73% 29.92 in 10.0 mi South 12.7 mph 18.4 mph N/A   Clear
8:55 AM 75.2 °F - 66.2 °F 73% 29.91 in 10.0 mi South 16.1 mph 19.6 mph N/A   Clear
9:15 AM 77.0 °F - 66.2 °F 69% 29.90 in - SSW 15.0 mph - N/A   Clear
9:35 AM 78.8 °F - 66.2 °F 65% 29.89 in 10.0 mi SSW 18.4 mph 26.5 mph N/A   Partly Cloudy
9:55 AM 78.8 °F - 68.0 °F 69% 29.89 in - SSW 19.6 mph 28.8 mph N/A   Partly Cloudy
10:15 AM 80.6 °F 83.2 °F 68.0 °F 65% 29.89 in 10.0 mi SSW 20.7 mph 26.5 mph N/A   Scattered Clouds
10:35 AM 80.6 °F 83.2 °F 68.0 °F 65% 29.87 in 10.0 mi SSW 24.2 mph 28.8 mph N/A   Mostly Cloudy
10:55 AM 82.4 °F 86.3 °F 69.8 °F 66% 29.87 in 10.0 mi SSW 20.7 mph 27.6 mph N/A   Mostly Cloudy
11:15 AM 82.4 °F 86.3 °F 69.8 °F 66% 29.87 in 10.0 mi SSW 23.0 mph 32.2 mph N/A   Mostly Cloudy
11:35 AM 82.4 °F 86.3 °F 69.8 °F 66% 29.87 in 10.0 mi SSW 20.7 mph 26.5 mph N/A   Mostly Cloudy
11:55 AM 82.4 °F 86.3 °F 69.8 °F 66% 29.86 in 10.0 mi SSW 19.6 mph 27.6 mph N/A   Mostly Cloudy
12:15 PM 82.4 °F 86.3 °F 69.8 °F 66% 29.86 in 10.0 mi SSW 20.7 mph 26.5 mph N/A   Mostly Cloudy
12:35 PM 84.2 °F 88.4 °F 69.8 °F 62% 29.85 in 10.0 mi SSW 15.0 mph 24.2 mph N/A   Mostly Cloudy
12:55 PM 84.2 °F 88.4 °F 69.8 °F 62% 29.84 in 10.0 mi SSW 21.9 mph 26.5 mph N/A   Mostly Cloudy
1:15 PM 86.0 °F 90.4 °F 69.8 °F 58% 29.84 in 10.0 mi South 19.6 mph 24.2 mph N/A   Scattered Clouds
1:35 PM 86.0 °F 90.4 °F 69.8 °F 58% 29.84 in 10.0 mi South 21.9 mph 26.5 mph N/A   Scattered Clouds
1:55 PM 87.8 °F 92.6 °F 69.8 °F 55% 29.83 in 10.0 mi SSW 19.6 mph 25.3 mph N/A   Partly Cloudy
2:15 PM 86.0 °F 90.4 °F 69.8 °F 58% 29.83 in 10.0 mi SW 19.6 mph 23.0 mph N/A   Scattered Clouds
2:35 PM 87.8 °F 92.6 °F 69.8 °F 55% 29.84 in 10.0 mi SSW 19.6 mph 24.2 mph N/A   Partly Cloudy
2:55 PM 86.0 °F 90.4 °F 69.8 °F 58% 29.83 in 10.0 mi SSW 17.3 mph 21.9 mph N/A   Mostly Cloudy
3:15 PM 86.0 °F 90.4 °F 69.8 °F 58% 29.83 in 10.0 mi SW 13.8 mph - N/A   Mostly Cloudy
3:35 PM 87.8 °F 93.8 °F 71.6 °F 58% 29.82 in 10.0 mi SSW 11.5 mph - N/A   Mostly Cloudy
3:55 PM 87.8 °F 92.6 °F 69.8 °F 55% 29.82 in 10.0 mi SW 16.1 mph - N/A   Mostly Cloudy
4:15 PM 87.8 °F 92.6 °F 69.8 °F 55% 29.82 in 10.0 mi SW 13.8 mph - N/A   Scattered Clouds
4:35 PM 86.0 °F 90.4 °F 69.8 °F 58% 29.82 in 10.0 mi SSW 11.5 mph 18.4 mph N/A   Mostly Cloudy
4:55 PM 86.0 °F 90.4 °F 69.8 °F 58% 29.81 in 10.0 mi SSW 10.4 mph - N/A   Mostly Cloudy
5:15 PM 87.8 °F 92.6 °F 69.8 °F 55% 29.81 in 10.0 mi SSW 10.4 mph - N/A   Mostly Cloudy
5:35 PM 86.0 °F 90.4 °F 69.8 °F 58% 29.82 in 10.0 mi SW 11.5 mph - N/A   Mostly Cloudy
5:55 PM 86.0 °F 90.4 °F 69.8 °F 58% 29.81 in 10.0 mi SSW 12.7 mph - N/A   Mostly Cloudy
6:15 PM 84.2 °F 88.4 °F 69.8 °F 62% 29.81 in 10.0 mi SSW 10.4 mph - N/A   Mostly Cloudy
6:35 PM 86.0 °F 90.4 °F 69.8 °F 58% 29.82 in 10.0 mi SSW 10.4 mph - N/A   Mostly Cloudy
6:55 PM 84.2 °F 88.4 °F 69.8 °F 62% 29.82 in 10.0 mi SW 8.1 mph - N/A   Mostly Cloudy
7:15 PM 84.2 °F 88.4 °F 69.8 °F 62% 29.82 in 10.0 mi SW 8.1 mph - N/A   Scattered Clouds
7:35 PM 82.4 °F 86.3 °F 69.8 °F 66% 29.83 in 10.0 mi SW 5.8 mph - N/A   Clear
7:55 PM 82.4 °F 86.3 °F 69.8 °F 66% 29.83 in 10.0 mi WSW 5.8 mph - N/A   Mostly Cloudy
8:15 PM 80.6 °F 83.2 °F 68.0 °F 65% 29.83 in 10.0 mi SW 6.9 mph - N/A   Mostly Cloudy
8:35 PM 80.6 °F 83.2 °F 68.0 °F 65% 29.83 in 10.0 mi South 8.1 mph - N/A   Scattered Clouds
8:55 PM 78.8 °F - 68.0 °F 69% 29.83 in 10.0 mi South 8.1 mph - N/A   Clear
9:15 PM 78.8 °F - 66.2 °F 65% 29.82 in 10.0 mi South 4.6 mph - N/A   Clear
9:35 PM 77.0 °F - 66.2 °F 69% 29.83 in 10.0 mi South 5.8 mph - N/A   Clear
10:15 PM 75.2 °F - 66.2 °F 73% 29.82 in 10.0 mi SSW 10.4 mph - N/A   Clear
10:35 PM 75.2 °F - 66.2 °F 73% 29.81 in 10.0 mi SSW 9.2 mph - N/A   Clear
10:55 PM 77.0 °F - 66.2 °F 69% 29.81 in 10.0 mi SSW 10.4 mph - N/A   Clear
11:15 PM 77.0 °F - 66.2 °F 69% 29.81 in 10.0 mi SSW 10.4 mph - N/A   Clear
11:35 PM 77.0 °F - 66.2 °F 69% 29.82 in 10.0 mi SSW 9.2 mph - N/A   Clear
11:55 PM 75.2 °F - 66.2 °F 73% 29.83 in 10.0 mi SSW 10.4 mph - N/A   Mostly Cloudy